Regional Weather Roundup
Issued by NWS

Home | Current Version | Previous Version | Text Only | Print | Product List | Glossary Off
Versions: 1 2 3 4 5 6 7 8 9 10 11 12 13 14 15 16 17 18 19 20 21 22 23 24 25 26 27

000
ASUS45 KBOU 221510
RWRCO

WEATHER ROUNDUP FOR COLORADO
NATIONAL WEATHER SERVICE DENVER/BOULDER CO
800 AM MST WED NOV 22 2017

NOTE: "FAIR" INDICATES FEW OR NO CLOUDS BELOW 12000 FEET WITH NO
SIGNIFICANT WEATHER AND/OR OBSTRUCTIONS TO VISIBILITY.

COZ001>005-013-030-031-221600-
...NORTHWEST COLORADO...

CITY           SKY/WX    TMP DP  RH WIND       PRES   REMARKS
CRAIG          MOCLDY    34  31  88 CALM      30.47R
HAYDEN         CLOUDY    37  33  85 E9        30.48R
MEEKER         FAIR      35  31  85 CALM      30.49R
RABBIT EARS PA CLOUDY   N/A N/A N/A W10G18    30.53R
STEAMBOAT SPGS CLOUDY    33  33  99 N3        30.48R
WALDEN         FAIR      37  30  75 SW9       30.46R
$$

COZ006>008-011-221600-
...WEST CENTRAL VALLEYS...

CITY           SKY/WX    TMP DP  RH WIND       PRES   REMARKS
GRAND JUNCTION FAIR      33  27  78 CALM      30.47R
MONTROSE       FAIR      32  27  81 CALM      30.51R
EAGLE          CLOUDY    32  29  88 W3        30.54
RIFLE          CLOUDY    32  30  92 S3        30.51R
DELTA          FAIR      33  26  76 CALM      30.50R
NUCLA          FAIR      32  27  80 E7        30.50S WCI  26
$$

COZ017>023-064>068-221600-
...SOUTHWEST COLORADO...

CITY           SKY/WX    TMP DP  RH WIND       PRES   REMARKS
DURANGO        FAIR      27  20  75 CALM      30.43R
CORTEZ         FAIR      32  24  72 E7        30.44R WCI  26
PAGOSA SPRINGS FAIR      32  22  66 CALM      30.45R
TELLURIDE      FAIR      34  22  61 SE3       30.56R
WOLF CREEK PAS FAIR      34  14  44 NW6       30.64R WCI  29
$$

COZ009-010-012-014-032>034-037-058>063-221600-
...CENTRAL COLORADO...

CITY           SKY/WX    TMP DP  RH WIND       PRES   REMARKS
ASPEN          CLOUDY    33  28  81 S6        30.52R WCI  28
BUENA VISTA    FAIR      34  26  73 CALM      30.44S
COPPER MTN     CLOUDY    30  28  93 MISG      30.59R
BERTHOUD PASS  CLOUDY    25  14  63 NW39G54   30.53R WCI   6
COTTONWOOD PAS FAIR      43  27  52 N3        30.48S
GUNNISON       FAIR      22  20  92 CALM      30.54R
KREMMLING      CLOUDY    37  34  87 E3        30.51R
LEADVILLE      CLOUDY    29  24  82 CALM      30.51R
MONARCH PASS     N/A     27  23  86 W21       30.66R WCI  13
SALIDA         FAIR      41  26  54 N5        30.50R
SUNLIGHT       CLOUDY    32  28  86 NW5       30.63R WCI  27
WILKERSON PASS FAIR      34  25  69 NW14G25   30.52S WCI  24
$$

COZ069>075-221600-
...SAN LUIS VALLEY/SANGRE DE CRISTO MOUNTAINS...

CITY           SKY/WX    TMP DP  RH WIND       PRES   REMARKS
ALAMOSA        FAIR      28  21  75 W3        30.45R
DEL NORTE      NOT AVBL
LA VETA PASS   FAIR      28  21  74 SW22        N/A  WCI  15
SAGUACHE       FAIR      37  28  70 NW17      30.46R
$$

COZ035-036-038>040-221600-
...NORTHERN COLORADO FRONT RANGE...

CITY           SKY/WX    TMP DP  RH WIND       PRES   REMARKS
DENVER INTL AP PTSUNNY   46  28  49 S8        30.24R
DMNS CITY PARK   N/A     44  27  50 SE10      30.25R
AURORA         PTSUNNY   45  26  47 S9        30.26R
FRONT RANGE AP PTSUNNY   39  32  75 S10G16    30.25R
ERIE MUNI ARPT FAIR      33  31  95 CALM      30.30R FOG
BOULDER MUN AP FAIR      36  34  93 SW5       30.24R
CENTENNIAL     PTSUNNY   44  27  51 S7        30.26R
BROOMFIELD     CLOUDY    45  34  65 CALM      30.24R
FORT COLLINS   FAIR      34  33  96 SW8       30.24R WCI  27
LONGMONT       FAIR      34  32  92 CALM      30.26S
$$

COZ041-046-047-076>085-087-088-221600-
...PIKES PEAK/PALMER DIVIDE AND SOUTHERN FOOTHILLS...

CITY           SKY/WX    TMP DP  RH WIND       PRES   REMARKS
COLO. SPRINGS  PTSUNNY   41  27  57 NE6       30.30R
A. F. ACADEMY  FAIR      33  28  81 N7        30.30R WCI  27
SCHRIEVER AFB  FAIR      44  25  46 CALM      30.30R
CHEYENNE MTN   FAIR      51  17  25 S6        30.26R
ELLICOTT         N/A    N/A N/A N/A CALM      30.28R
FALCON         FAIR      39  24  53 W5        30.32S
FORT CARSON    FAIR      39  29  68 NW8       30.27R
LIMON          FAIR      36  31  82 CALM      30.26S
MONUMENT HILL  FAIR      36  27  69 SW8       30.32S
CANON CITY     FAIR      52  28  40 W20G25    30.27S
WALSENBURG     FAIR      54  27  35 W20G25    30.29S
TRINIDAD       FAIR      39  28  64 SW13      30.31R
$$

COZ042>045-048>051-090-091-221600-
...NORTHEAST COLORADO...

CITY           SKY/WX    TMP DP  RH WIND       PRES   REMARKS
GREELEY ARPT   FAIR      35  33  92 VRB3      30.24S
AKRON          FAIR      39  30  70 W13       30.22R
BURLINGTON     FAIR      44  31  60 W10       30.23R
WRAY           NOT AVBL
YUMA           FAIR      41  32  70 W7        30.21R
STERLING       FAIR      32  30  93 SW9       30.21R WCI  24
HOLYOKE        FAIR      41  34  75 W5        30.19R
FORT MORGAN    FAIR      34  31  88 W9        30.23S WCI  27
$$

COZ086-089-092>099-221600-
...SOUTHEAST COLORADO...

CITY           SKY/WX    TMP DP  RH WIND       PRES   REMARKS
PUEBLO         FAIR      33  30  88 CALM      30.28R
LA JUNTA       FAIR      36  30  79 W9        30.27F
LAMAR          FAIR      35  27  72 W8        30.26S WCI  29
SPRINGFIELD      N/A     43  32  65 W5        30.26S
$$




USA.gov is the U.S. government's official web portal to all federal, state and local government web resources and services.